Location: Lafig�re
(44.4503°N, 4.0357°E)
Time: 15:42:53
(UTC+00:00)

Vanguard 2 Rocket - Pass Details

Date: 26 January 2021
Orbit: 554 x 3325 km, 32.9° (Epoch: 06 March)

Event Time Altitude Azimuth Distance (km) Brightness Sun altitude
Rises 15:49:34 0° 251° (WSW) 6,515 13.0 7.7°
Reaches altitude 10° 15:54:45 10° 246° (WSW) 5,088 13.0 6.9°
Maximum altitude 16:06:54 42° 183° (S) 2,190 9.3 5.1°
Drops below altitude 10° 16:14:05 10° 115° (ESE) 3,036 9.3 4.0°
Sets 16:16:24 0° 107° (ESE) 3,727 9.6 3.7°
